Regional Weather Roundup
Issued by NWS Goodland, KS

Home | Current Version | Previous Version | Graphics & Text | Print | Product List | Glossary On
Versions: 1 2 3 4 5 6 7 8 9 10 11 12 13 14 15 16 17 18 19 20 21 22 23 24 25 26 27 28 29 30 31 32 33 34 35 36 37 38 39 40 41 42 43 44 45 46 47 48 49 50
000
ASUS43 KGLD 170208
RWRGLD

GOODLAND FORECAST AREA HOURLY WEATHER ROUNDUP
NATIONAL WEATHER SERVICE GOODLAND KS
800 PM MDT WED AUG 16 2017

...OFFICIAL OBSERVATIONS...

CITY           SKY/WX    TMP DP  RH WIND       PRES   REMARKS
GOODLAND KS    CLEAR     65  58  78 N7        30.04R
HILL CITY KS   CLEAR     69  63  81 N8        29.95R
IMPERIAL NEB   CLEAR     65  56  72 N8        30.03R
MCCOOK NEB     CLEAR     67  61  81 NW6       29.98R
AKRON CO       CLEAR     65  47  52 N3        30.12R
BURLINGTON CO  CLEAR     68  55  63 N3        30.08R
LIMON CO       CLEAR     59  53  80 N3        30.17R
$$

...UNOFFICIAL OBSERVATIONS...

CITY           SKY/WX    TMP DP  RH WIND       PRES   REMARKS
LENORA KS        N/A     67  32  27 CALM        N/A
NORTON KS      CLEAR     64  57  77 NW7       29.96R
SHARON SPRINGS   N/A     70  56  61 CALM        N/A
TRENTON NEB      N/A     65  32  29 CALM        N/A
KIT CARSON CO    N/A     68  53  57 CALM        N/A
YUMA CO        FAIR      63  41  45 N7        30.09R
$$




USA.gov is the U.S. government's official web portal to all federal, state and local government web resources and services.